Miscellaneous Local Product
Issued by NWS North Platte, NE

Home | Current Version | Previous Version | Text Only | Print | Product List | Glossary On
Versions: 1 2 3 4 5 6 7 8 9 10 11 12 13 14 15 16 17 18 19 20 21 22 23 24 25 26 27 28 29 30 31 32 33 34 35 36 37 38 39 40 41 42 43 44 45 46 47 48 49 50
000
AXUS43 KLBF 192010
MISLBF


WESTERN AND NORTH CENTRAL NEBRASKA HOURLY WEATHER ROUNDUP
NATIONAL WEATHER SERVICE NORTH PLATTE NE
200 PM CST FRI JAN 19 2018

NOTE: "FAIR" INDICATES FEW OR NO CLOUDS BELOW 12,000 FEET WITH NO
SIGNIFICANT WEATHER AND/OR OBSTRUCTIONS TO VISIBILITY.

NOTE: STATIONS NOT REPORTING VARIABLES SUCH AS SKY/WEATHER OR
PRESSURE ARE PROVIDED BY RAWS AND APRS NETWORKS AND ARE NOT UNDER
NATIONAL WEATHER SERVICE QUALITY CONTROL.

...OBSERVATIONS IN AND NEAR THE EASTERN PANHANDLE OF NEBRASKA...

CITY           SKY/WX    TMP DP  RH WIND       PRES   REMARKS
GORDON         FAIR      46  32  56 N8        29.67S
CHADRON        CLOUDY    45  31  58 NE9       29.68F
ALLIANCE       CLOUDY    42  35  76 CALM      29.66F
SIDNEY         CLOUDY    52  26  36 NW7       29.68F
CRESCENT LAKE    N/A     52  29  41 NW7         N/A
$$

...OBSERVATIONS IN NORTHERN NEBRASKA AND FAR SOUTHERN SOUTH DAKOTA...

CITY           SKY/WX    TMP DP  RH WIND       PRES   REMARKS
WINNER         FAIR      49  33  54 NW15      29.64R
VALENTINE      CLOUDY    52  33  48 NW16      29.64S
AINSWORTH      CLOUDY    53  34  49 NW16G22   29.61F
O`NEILL        CLOUDY    52  35  51 W7        29.59S
THEDFORD       CLOUDY    54  34  47 W7        29.62F
BROKEN BOW     CLOUDY    52  30  43 S3        29.61F
ORD            CLOUDY    63  29  27 SW6       29.59F
ALBION         CLOUDY    59  35  39 SW8       29.60F
VALENTINE NWR    N/A     58  28  32 NW16        N/A
HALSEY           N/A     62  27  26 W7          N/A
BUTTE            N/A     50  36  59 NW12        N/A
CHAMBERS         N/A     57  33  41 CALM        N/A
EWING            N/A     61  35  37 W6          N/A
$$

...OBSERVATIONS IN SOUTHWEST NEBRASKA AND FAR NORTHEAST COLORADO...

CITY           SKY/WX    TMP DP  RH WIND       PRES   REMARKS
WRAY           FAIR      68  18  14 NW12      29.67F
HOLYOKE        FAIR      61  23  23 NW8       29.68F
IMPERIAL       CLOUDY    55  29  36 NW3       29.65F
OGALLALA       CLOUDY    50  33  53 W7        29.66F
NORTH PLATTE   CLOUDY    50  30  46 W5        29.64F
MCCOOK         CLOUDY    54  25  32 SW3       29.64F
LEXINGTON      CLOUDY    50  34  54 N5        29.64S
STAPLETON        N/A     57  35  43 CALM        N/A
GOTHENBURG       N/A     52  30  43 W5          N/A
CALLAWAY         N/A     55  33  44 NW3         N/A
$$

...OBSERVATIONS IN CENTRAL LINCOLN COUNTY AREA...

CITY           SKY/WX    TMP DP  RH WIND       PRES   REMARKS
N.P. AIRPORT   CLOUDY    50  30  46 W5        29.64F
N.P. DOWNTOWN    N/A     48  33  56 CALM        N/A
N.P. SOUTHEAST   N/A     49  31  49 CALM        N/A
N.P. HILLCREST   N/A     46  34  63 W3          N/A
$$

...SOME OBSERVATIONS FROM AROUND THE REGION...

CITY           SKY/WX    TMP DP  RH WIND       PRES   REMARKS
DENVER         CLOUDY    63  16  16 W7        29.74F
BERTHOUD PASS  FAIR      32  21  64 NW40G58   30.00S WCI  16
GRAND JUNCTION MOSUNNY   42  22  44 W3        29.95F
LARAMIE        MOSUNNY   56  19  23 SW33G41   29.77F
CHEYENNE       CLOUDY    60  19  20 W22G31    29.75F
CASPER         MOSUNNY   50  23  34 SW31G38   29.66F
BISMARCK       CLOUDY    43  32  65 W12       29.62R
RAPID CITY     CLOUDY    43  31  62 N12       29.68F
PIERRE         CLOUDY    45  31  58 NW12      29.62R
SIOUX FALLS    CLOUDY    50  36  58 W9        29.54S
OMAHA          CLOUDY    46  29  51 S16       29.65F
GRAND ISLAND   CLOUDY    49  31  49 SW7       29.64F
SCOTTSBLUFF    CLOUDY    38  32  79 VRB3      29.67F
KANSAS CITY    CLOUDY    48  25  40 SW21      29.82F
HILL CITY      CLOUDY    66  18  15 SW13      29.64F
WICHITA        CLOUDY    55  21  26 S24       29.81F
DODGE CITY     CLOUDY    64  18  17 S21       29.72F
OKLAHOMA CITY  CLOUDY    56  24  29 S22       29.92F
DALLAS         MOSUNNY   57  39  51 S23       30.07F
AMARILLO       CLOUDY    67  14  13 SW17      29.82F
$$




USA.gov is the U.S. government's official web portal to all federal, state and local government web resources and services.